Regional Weather Roundup
Issued by NWS

Home | Current Version | Previous Version | Graphics & Text | Print | Product List | Glossary On
Versions: 1 2 3 4 5 6 7 8 9 10 11 12 13 14 15 16 17 18 19 20 21 22 23 24 25 26 27 28 29 30 31 32 33 34 35 36 37 38 39 40 41 42 43 44 45 46 47 48 49 50
000
ASUS45 KBOU 170610
RWRCO

WEATHER ROUNDUP FOR COLORADO
NATIONAL WEATHER SERVICE DENVER/BOULDER CO
1100 PM MST THU NOV 16 2017

NOTE: "FAIR" INDICATES FEW OR NO CLOUDS BELOW 12000 FEET WITH NO
SIGNIFICANT WEATHER AND/OR OBSTRUCTIONS TO VISIBILITY.

COZ001>005-013-030-031-170700-
...NORTHWEST COLORADO...

CITY           SKY/WX    TMP DP  RH WIND       PRES   REMARKS
CRAIG          CLOUDY    55  26  32 SW24G33   29.80F
HAYDEN         CLOUDY    52  28  39 SW14G24   29.83F
MEEKER         FAIR      54  27  35 SW20G26   29.83F
RABBIT EARS PA CLOUDY    34  27  75 SW13G30   29.96F WCI  25
STEAMBOAT SPGS CLOUDY    46  28  48 CALM      29.84F
WALDEN         FAIR      41  25  52 S20G28    29.86S
$$

COZ006>008-011-170700-
...WEST CENTRAL VALLEYS...

CITY           SKY/WX    TMP DP  RH WIND       PRES   REMARKS
GRAND JUNCTION FAIR      56  26  31 SE14      29.85F
MONTROSE       FAIR      60  23  24 SW12G23   29.93F
EAGLE          FAIR      56  25  30 SW20G33   29.88F
RIFLE          FAIR      50  27  40 VRB3      29.85F
DELTA          FAIR      59  25  26 S9G23     29.91F
NUCLA          FAIR      59  21  23 S16G31    30.00F
$$

COZ017>023-064>068-170700-
...SOUTHWEST COLORADO...

CITY           SKY/WX    TMP DP  RH WIND       PRES   REMARKS
DURANGO        CLOUDY    47  24  40 NE3       30.09S
CORTEZ         MOCLDY    48  25  40 NE5       30.04F
PAGOSA SPRINGS CLOUDY    47  25  41 CALM      30.15R
TELLURIDE      FAIR      47  22  36 SE8G22    30.12F
WOLF CREEK PAS CLOUDY    30  28  93 SW14G30   30.30R WCI  20
$$

COZ009-010-012-014-032>034-037-058>063-170700-
...CENTRAL COLORADO...

CITY           SKY/WX    TMP DP  RH WIND       PRES   REMARKS
ASPEN          FAIR      53  22  29 S17G28    29.94F
BUENA VISTA    FAIR      42  32  68 SE7       29.99F
COPPER MTN     MOCLDY    36  23  60 MISG      30.09F
BERTHOUD PASS  CLOUDY    28  18  64 W37G54    30.04S WCI  11
COTTONWOOD PAS CLOUDY    46  28  49 NW5       30.05F
GUNNISON       FAIR      37  34  89 CALM      30.03F
KREMMLING      MOCLDY    54  28  37 SW9G20    29.89F
LEADVILLE      MOCLDY    41  19  41 SW12      30.01F
MONARCH PASS   MOCLDY    30  27  86 SW38G51   30.23F WCI  14
SALIDA         FAIR      45  33  61 SE6       30.06F
SUNLIGHT       CLOUDY    34  21  60 SW21G37   30.04F WCI  22
WILKERSON PASS FAIR      32  27  80 SW21G32   30.08F WCI  20
$$

COZ069>075-170700-
...SAN LUIS VALLEY/SANGRE DE CRISTO MOUNTAINS...

CITY           SKY/WX    TMP DP  RH WIND       PRES   REMARKS
ALAMOSA        FAIR      44  30  57 SE10      30.07F
DEL NORTE      FAIR      49  26  40 SW18G26   30.06F
LA VETA PASS   FAIR      39  28  65 S25G39      N/A
SAGUACHE       FAIR      34  25  69 W5        30.06F WCI  30
$$

COZ035-036-038>040-170700-
...NORTHERN COLORADO FRONT RANGE...

CITY           SKY/WX    TMP DP  RH WIND       PRES   REMARKS
DENVER INTL AP MOCLDY    53  26  35 S9        29.75F
DMNS CITY PARK   N/A     59  26  28 SW16      29.74S
AURORA         PTCLDY    55  29  37 SW17      29.76F
FRONT RANGE AP FAIR      56  29  35 SW10      29.76F
ERIE MUNI ARPT FAIR      51  27  38 NW8       29.77F
BOULDER MUN AP FAIR      59  28  31 SW7       29.74S
CENTENNIAL     FAIR      55  30  38 SW17      29.78S
BROOMFIELD     FAIR      59  27  29 SW16      29.75F
FORT COLLINS   FAIR      59  31  34 SW18G24   29.69F
LONGMONT       FAIR      55  28  35 CALM      29.74S
$$

COZ041-046-047-076>085-087-088-170700-
...PIKES PEAK/PALMER DIVIDE AND SOUTHERN FOOTHILLS...

CITY           SKY/WX    TMP DP  RH WIND       PRES   REMARKS
COLO. SPRINGS  MOCLDY    61  28  28 W18       29.84F
A. F. ACADEMY  FAIR      58  26  29 W25G46    29.82F
SCHRIEVER AFB  FAIR      59  27  30 NW7       29.84F
CHEYENNE MTN   FAIR      55  27  33 E14G32    29.78R
ELLICOTT         N/A    N/A N/A N/A SW28G35   29.81F
FALCON         FAIR      56  26  30 W28G33    29.85F
FORT CARSON    FAIR      60  29  31 W26G39    29.78F
LIMON          FAIR      57  29  34 W14       29.79F
MONUMENT HILL  FAIR      48  30  49 W20G28    29.88F
CANON CITY     CLEAR     54  34  47 MISG      29.87F
WALSENBURG     FAIR      61  32  33 W37G51    29.84F
TRINIDAD       FAIR      57  28  33 W12       29.88F
$$

COZ042>045-048>051-090-091-170700-
...NORTHEAST COLORADO...

CITY           SKY/WX    TMP DP  RH WIND       PRES   REMARKS
GREELEY ARPT   FAIR      61  30  31 W10       29.69F
AKRON          FAIR      55  21  26 SW15      29.70F
BURLINGTON     FAIR      53  27  36 SW14      29.73F
WRAY           NOT AVBL
YUMA           FAIR      45  25  45 W6        29.69F
STERLING       FAIR      46  28  49 CALM      29.68S
HOLYOKE        FAIR      39  30  70 W8        29.67S
FORT MORGAN    FAIR      47  23  37 CALM      29.70F
$$

COZ086-089-092>099-170700-
...SOUTHEAST COLORADO...

CITY           SKY/WX    TMP DP  RH WIND       PRES   REMARKS
PUEBLO         FAIR      59  32  36 W8        29.80F
LA JUNTA       FAIR      61  29  29 W10G25    29.79S
LAMAR          FAIR      54  28  36 SW8       29.76R
SPRINGFIELD      N/A     57  29  34 W10       29.83R
$$



USA.gov is the U.S. government's official web portal to all federal, state and local government web resources and services.